Погода в Сухиничи

Хотите узнать прогноз погоды в Сухиничи? Тогда Вам сюда: Погода в Сухиничи

Поиск расширенной информации на нашем сайте:

Полезная информация:

Новости сайта



02.01.2020
Опубликован Долгосрочный прогноз погоды по городам России и ближнего зарубежья на январь 2020 года.
Карты: Прогноз на январь и февраль 2020 года, Сравнение прогнозируемой аномалии приземной температуры воздуха на январь 2020 года по разным моделям.




Погода в Сухиничи - сегодня

Время (UTC), дата Ветер
(°,м/с) 
Видим.   Явления Облачность Т
(°С)
Тd
(°С)
f(%) Тe
(°С)
Pmin
(гПа)
dP
(гПа)
Po
(мм)
O2
(г/м3)
Тmin Tmax R s Состояние
почвы
00 16.01.22 290 (З) 10 км  в посл. час ливневой снег  9/9 600 м кучево-дожд. 
[Cb cap]
-2.9 -4.6 88 -5  1008.2  1.5  734  299           
03 16.01.22 300 (СЗ) 10 км  слаб. ливневой снег  9/9 600 м кучево-дожд. 
[Cb cap]
-2.3 -4 88 -5  1008.8  0.7  734  299  -3.1    0.3     
06 16.01.22 300 (СЗ) 10 км  {ливн. осадки}  9/9 600 м 
[Sc]
-2.3 -5.6 78 -4  1010.9  736  300  -3.1    0.3  33  неравномерный
сухой снег
100% 
09 16.01.22 300 (СЗ) 10 км    8/3 600 м средняя 
[Sc|Ac trans]
-2.5 -7.3 70 -5  1012.6  1.6  737  300           
12 16.01.22 290 (З) 10 км    9/9 600 м кучево-дожд. 
[Cb cap]
-3 -8.6 65 -5  1012.6  737  301           
15 16.01.22 240 (ЮЗ) 10 км    ясно 
-10.1 -11.6 89 -10  1013.3  -0.2  737  309           
18 16.01.22 240 (ЮЗ) 10 км    ясно 
-7.8 -9.4 88 -11  1011.2  -1.7  736  306    -2       
21 16.01.22 240 (ЮЗ) 10 км    ясно 
-7.7 -9.4 88 -9  1008.1  -3  733  305           
00 17.01.22 230 (ЮЗ) 10 км    ясно 
-7.1 -8.5 90 -10  1004.2  -3.7  731  303           
03 17.01.22 220 (ЮЗ) 10 км    10/0 средняя 
[As op]
-5.8 -7.6 87 -9  998.9  -5  727  300  -10.6         
06 17.01.22 220 (ЮЗ) 4-11  4000 м  слаб. снег  10/10 2000 м 
[Ns]
-4.8 -6.5 88 -8  994.6  -4.1  724  297  -8    0.2  32  неравномерный
сухой снег
100% 
09 17.01.22 220 (ЮЗ) 4-10{11}  10 км  в посл. час снег  10/10 2000 м 
[As trans]
-3.3 -5 88 -6  991.5  -2.8  722  295           
12 17.01.22 220 (ЮЗ) 4000 м  слаб. снег{ливн. осадки}  10/0 средняя 
[As op]
-2.3 -3.4 92 -4  988.4  -2.9  719  293           
15 17.01.22 200 (Ю) 4000 м  слаб. снег  10/10 600 м 
[Ns]
-1.8 -2.5 95 -3  986.1  -2.2  718  291         
18 17.01.22 200 (Ю) 4000 м  дымка{снег}  9/6 600 м средняя 
[Sc|Ac As]
-1 -1.6 96 -3  985.6  -0.4  718  290    -0.9     
21 17.01.22 220 (ЮЗ) 4000 м  в посл. час ливневой снег  9/9 600 м кучево-дожд. 
[Cb cap]
-0.7 -1.2 96 -2  985.9  0.3  718  290           
00 18.01.22 190 (Ю) 4000 м  слаб. ливневой снег  9/8 600 м кучево-дожд., средняя 
[Cb cap|Ac cast]
-0.8 -1.3 96 987  1.1  719  290           
03 18.01.22 340 (С) 6-13{13}  2000 м  слаб. ливневой снег  10/10 300 м кучево-дожд. 
[Cb cap]
-4 -4.8 94 -8  991.8  4.2  722  296  -4.2       
06 18.01.22 350 (С) 6-11{14}  2000 м  слаб. снег{ливн. осадки}  10/10 300 м 
[Ns]
-6.4 -7.6 91 -11  998  5.8  726  300  -6.3    40  неравномерный
сухой снег
100% 
09 18.01.22 350 (С) 6-11{12}  10 км  слаб. снег  10/10 600 м 
[Ns]
-6.6 -8.6 86 -11  1002.7  4.6  730  302           
12 18.01.22 350 (С) 6-11{14}  10 км  слаб. снег  10/10 600 м 
[Ns]
-6.6 -9.7 79 -11  1007.2  4.3  733  303           
15 18.01.22 010 (С) 4{11}  10 км  позёмок{снег}  9/9 600 м 
[Sc]
-6.4 -9.3 80 -10  1011.8  4.5  736  305         
18 18.01.22 360 (С) 10 км  позёмок{ливн. осадки, снег}  9/9 600 м кучево-дожд. 
[Cb cap]
-5.9 -9 79 -8  1015.4  3.5  739  305    -5.8     
21 18.01.22 350 (С) 10 км  позёмок  9/9 600 м 
[Sc]
-6.2 -9.4 78 -10  1017.5  2.1  740  306           
00 19.01.22 350 (С) 10 км    9/9 600 м 
[Sc]
-8 -10.7 81 -11  1019.4  1.5  741  309           
Время (UTC), дата Ветер
(°,м/с) 
Видим.   Явления Облачность Т
(°С)
Тd
(°С)
f(%) Тe
(°С)
Pmin
(гПа)
dP
(гПа)
Po
(мм)
O2
(г/м3)
Тmin Tmax R s Состояние
почвы

Для получения пояснительной информации подведите курсор к названию столбца.

ПОГОДА в Сухиничи - архив

Всё, что Вы хотите узнать о погоде в Сухиничи - удобно и подробно!

Выберите нужную дату (начиная с 1 января 2019* года) и нажмите кнопку "Найти".
Будут отображены архивные сводки погоды по пункту Сухиничи, начиная с указанной даты.


Отображать данные в формате CSV (для использования в таблицах Excel)


Внимание! Наш архив погоды предназначен исключительно для личного некоммерческого использования в познавательных целях. Если Вам необходимы официальные справки о состоянии погоды (для производственных, юридических, коммерческих и т.п. целей), обращайтесь в органы Росгидромета.

*Примечание: данная дата относится к архиву по метеостанциям СССР (Россия, СНГ, Балтия).
Архив по метеостанциям Зарубежной Европы и Азии (кроме Китая) хранится 10 дней, по другим регионам земного шара (Китай, Африка, Америка, Австралия, Океания) - 1 день.

Сухиничи - район местоположения метеостанции


Название, широта, долгота, высота метеостанции:
Сухиничи 54.1°ш. 35.3°д. 238 м над ур. моря [Российская Федерация]

Дополнительная информация

В oтличие oт бoльшинства пoгoдных сайтoв мы публикуем пoдрoбную метеoинфoрмацию в детальнoм прoфессиoнальнoм фoрмате.

Характеристики температуры и влажнoсти вoздуха измеряются на высoте 2 м в тени вдали oт зданий и деревьев.
Скoрoсть ветра измеряется на высoте 10 м (на урoвне рoста челoвека скoрoсть ветра ниже в 1.5-2 раза). Если метеoстанция нахoдится в гoрoде или в лесу, тo скoрoсть ветра занижена на 2-4 м/с пo сравнению с oткрытым местoм. Скoрoсть ветра над акватoриями крупных рек и oзёр, а также на вершинах хoлмoв на 2-5 м/с выше, чем в oбычных услoвиях.
Атмoсфернoе давление в разных тoчках местнoсти мoжет значительнo oтличаться oт давления на метеoстанции, в зависимoсти oт услoвий рельефа (при пoдъёме на 10 м давление пoнижается примернo на 1 мм рт.ст.).